Location: Burbank
(38.7788°N, 114.0429°W)
Time: 21:52:21
(UTC+00:00)

S-56A Canister/Altair - Pass Details

Date: 11 May 2026
Orbit: 632 x 2484 km, 38.9° (Epoch: 8 June)

Event Time Altitude Azimuth Distance (km) Brightness Sun altitude
Rises 06:37:37 0° 261° (W) 2,930 - -31.9°
Reaches altitude 10° 06:39:44 10° 261° (W) 2,073 - -32.0°
Maximum altitude 06:44:22 88° 172° (S) 764 - -32.2°
Drops below altitude 10° 06:50:32 10° 85° (E) 2,726 - -32.5°
Exits shadow 06:52:44 - 85° (E) 3,584 10.9 -32.6°
Sets 06:53:41 0° 85° (E) 3,946 11.1 -32.6°
